FW9375 Weather Reports


time (UTC)temp
F
wind
direction
speed
knots
gust
knots
rain 1hr
in
rain 24hr
in
rain mn
in
humidity
%
barometer
mb
20260906010032 72 0.0 0.0 0.00 0.00 0.00 95 1024.2
20260906003031 72 0.0 0.0 0.00 0.00 0.00 92 1024.2
20260906001531 72 0.0 0.0 0.00 0.00 0.00 92 1024.2
20260906000032 72 0.0 0.0 0.00 0.00 0.00 87 1024.1
20260905234531 72 0.0 0.0 0.00 0.00 0.00 87 1024.0
20260905233031 72 0.0 0.0 0.00 0.00 0.00 87 1023.9
20260905231531 72 0.0 0.0 0.00 0.00 0.00 87 1023.9
20260905223032 73 0.0 0.0 0.00 0.00 0.00 80 1023.6
20260905220032 73 0.0 0.0 0.00 0.00 0.00 74 1023.4
20260905214531 74 0.0 0.0 0.00 0.00 0.00 71 1023.4
20260905213031 74 0.0 0.0 0.00 0.00 0.00 67 1023.1
20260905211531 75 0.0 0.0 0.00 0.00 0.00 64 1022.9
20260905210032 75 0.0 0.0 0.00 0.00 0.00 62 1022.7
20260905204532 75 0.0 0.0 0.00 0.00 0.00 61 1022.4
20260905203032 76 0.0 0.0 0.00 0.00 0.00 60 1022.4
20260905201532 76 0.0 0.0 0.00 0.00 0.00 59 1022.3
20260905200032 76 0.0 0.0 0.00 0.00 0.00 59 1022.1
20260905194531 76 0.0 0.0 0.00 0.00 0.00 59 1022.0
20260905193031 76 0.0 0.0 0.00 0.00 0.00 59 1021.9
20260905191531 76 0.0 0.0 0.00 0.00 0.00 57 1021.7
20260905190032 77 0.0 0.0 0.00 0.00 0.00 55 1021.4
20260905181531 78 0.0 0.0 0.00 0.00 0.00 51 1020.8
20260905180032 78 0.0 0.0 0.00 0.00 0.00 50 1020.6
20260905174531 79 0.0 0.0 0.00 0.00 0.00 49 1020.5
20260905173032 80 0.0 0.0 0.00 0.00 0.00 47 1020.3
20260905164532 82 0.0 0.0 0.00 0.00 0.00 43 1019.5
20260905163031 83 0.0 0.0 0.00 0.00 0.00 42 1019.3
20260905161531 85 0.0 0.0 0.00 0.00 0.00 41 1019.3
20260905160032 85 0.0 0.0 0.00 0.00 0.00 41 1019.2
20260905154532 86 0.0 0.0 0.00 0.00 0.00 40 1019.0
20260905153032 87 0.0 0.0 0.00 0.00 0.00 38 1019.0
20260905151532 88 0.0 0.0 0.00 0.00 0.00 37 1018.7
20260905150032 89 0.0 0.0 0.00 0.00 0.00 38 1018.6
20260905144531 89 0.0 0.0 0.00 0.00 0.00 37 1018.6
20260905143033 89 0.0 0.0 0.00 0.00 0.00 37 1018.4
20260905140031 89 0.0 0.0 0.00 0.00 0.00 37 1018.5
20260905134532 89 0.0 0.0 0.00 0.00 0.00 37 1018.4
20260905133032 89 0.0 0.0 0.00 0.00 0.00 37 1018.5
20260905124532 89 0.0 0.0 0.00 0.00 0.00 38 1018.7
20260905123031 89 0.0 0.0 0.00 0.00 0.00 38 1018.8
20260905120032 89 0.0 0.0 0.00 0.00 0.00 39 1018.8
20260905114533 89 0.0 0.0 0.00 0.00 0.00 40 1018.8
20260905113031 88 0.0 0.0 0.00 0.00 0.00 40 1018.6
20260905111532 89 0.0 0.0 0.00 0.00 0.00 42 1018.6
20260905110032 90 0.0 0.0 0.00 0.00 0.00 48 1018.2
20260905104532 90 0.0 0.0 0.00 0.00 0.00 51 1018.3
20260905103032 89 0.0 0.0 0.00 0.00 0.00 51 1018.4
20260905101531 88 0.0 0.0 0.00 0.00 0.00 53 1018.3
20260905100032 88 0.0 0.0 0.00 0.00 0.00 51 1018.2
20260905093032 89 0.0 0.0 0.00 0.00 0.00 48 1017.9
20260905091531 88 0.0 0.0 0.00 0.00 0.00 44 1017.5
20260905090032 88 0.0 0.0 0.00 0.00 0.00 42 1017.4
20260905084531 87 0.0 0.0 0.00 0.00 0.00 43 1017.3
20260905083032 87 0.0 0.0 0.00 0.00 0.00 43 1017.3
20260905081532 86 0.0 0.0 0.00 0.00 0.00 43 1017.1
20260905080032 85 0.0 0.0 0.00 0.00 0.00 45 1017.0
20260905074531 85 0.0 0.0 0.00 0.00 0.00 48 1017.0
20260905073032 83 0.0 0.0 0.00 0.00 0.00 50 1016.7
20260905071532 82 0.0 0.0 0.00 0.00 0.00 53 1016.6
20260905070032 81 0.0 0.0 0.00 0.00 0.00 56 1016.5
20260905064531 80 0.0 0.0 0.00 0.00 0.00 63 1016.4
20260905063032 78 0.0 0.0 0.00 0.00 0.00 68 1016.4
20260905061532 77 0.0 0.0 0.00 0.00 0.00 70 1016.4
20260905060031 75 0.0 0.0 0.00 0.00 0.00 76 1016.4
20260905054531 74 0.0 0.0 0.00 0.00 0.00 82 1016.3
20260905053031 73 0.0 0.0 0.00 0.00 0.00 84 1016.2
20260905051532 72 0.0 0.0 0.00 0.00 0.00 86 1016.0
20260905050031 71 0.0 0.0 0.00 0.00 0.00 88 1016.0
20260905044532 71 0.0 0.0 0.00 0.00 0.00 89 1016.0
20260905043031 71 0.0 0.0 0.00 0.00 0.00 91 1016.0
20260905041531 70 0.0 0.0 0.00 0.00 0.00 93 1016.0
20260905040032 70 0.0 0.0 0.00 0.00 0.00 96 1016.0
20260905034531 69 0.0 0.0 0.00 0.00 0.00 99 1015.8
20260905033031 69 0.0 0.0 0.00 0.00 0.00 10 1015.7
20260905031532 69 0.0 0.0 0.00 0.00 0.00 10 1015.7
20260905030031 69 0.0 0.0 0.00 0.00 0.00 10 1015.8
20260905024531 69 0.0 0.0 0.00 0.00 0.00 10 1015.7
20260905023031 69 0.0 0.0 0.00 0.00 0.00 10 1015.9
20260905021532 69 0.0 0.0 0.00 0.00 0.00 10 1015.9
20260905020032 69 0.0 0.0 0.00 0.00 0.00 10 1015.9
20260905013032 69 0.0 0.0 0.00 0.00 0.00 10 1015.9
20260905011532 69 0.0 0.0 0.00 0.00 0.00 10 1015.9